Elmira, NY

7:12 AM EST on November 17, 2019 (GMT -0500)
Elmira-Corning Regional

Weather History for KELM - September, 2019

Change the Weather History Date:

Thursday, September 19, 2019

  Actual Average Record
Temperature  
Mean Temperature 56 °F -  
Max Temperature 73 °F 71 °F 91 °F (1947)
Min Temperature 41 °F 46 °F 33 °F (1929)
Degree Days  
Heating Degree Days 8    
Growing Degree Days 6 (Base 50)    
Moisture  
Dew Point 46 °F    
Average Humidity 91    
Maximum Humidity 100    
Minimum Humidity 44    
Precipitation  
Precipitation 0.00 in - - ()
Sea Level Pressure  
Sea Level Pressure 30.31 in    
Wind  
Wind Speed 1 mph (SW)    
Max Wind Speed 7 mph    
Max Gust Speed -    
Visibility 4 miles    
Events Fog    
Averages and records for this station are not official NWS values.
T = Trace of Precipitation, MM = Missing Value Source: NWS Daily Summary

Daily Weather History Graph

Daily Weather History Graph

Search for Another Location

Airport or City:

Astronomy

Sep. 19, 2019 Rise Set
Actual Time 6:51 AM EDT 7:10 PM EDT
Civil Twilight 6:23 AM EDT 7:38 PM EDT
Nautical Twilight 5:50 AM EDT 8:11 PM EDT
Astronomical Twilight 5:16 AM EDT 8:44 PM EDT
Moon 10:12 PM EDT (9/19) 11:57 AM EDT (9/19)
Length of Visible Light 13h 14m
Length of Day
12h 18m
Waning Gibbous, 74% of the Moon is Illuminated
Sep 19
Waning Gibbous
Sep 21
Last Quarter
Sep 28
New
Oct 5
First Quarter
Oct 13
Full

Hourly Weather History & Observations

Time (EDT) Temp. Windchill Dew Point Humidity Pressure Visibility Wind Dir Wind Speed Gust Speed Precip Events Conditions
12:38 AM 46.9 °F - 46.0 °F 97% 30.30 in 1.8 mi Calm Calm - N/A   Clear
12:47 AM 46.4 °F - 46.4 °F 100% 30.30 in 4.0 mi Calm Calm - N/A   Clear
12:53 AM 46.0 °F - 45.0 °F 96% 30.30 in 7.0 mi Calm Calm - N/A   Clear
1:02 AM 46.0 °F - 46.0 °F 100% 30.30 in 1.2 mi Calm Calm - N/A   Clear
1:10 AM 44.1 °F - 44.1 °F 100% 30.30 in 0.5 mi Calm Calm - N/A Fog Fog
1:16 AM 43.0 °F - 43.0 °F 100% 30.30 in 2.5 mi Calm Calm - N/A   Clear
1:23 AM 44.1 °F - 44.1 °F 100% 30.31 in 7.0 mi Calm Calm - N/A   Clear
1:53 AM 43.0 °F - 43.0 °F 100% 30.32 in 0.5 mi Calm Calm - N/A Fog Fog
2:00 AM 44.1 °F - 43.0 °F 96% 30.31 in 0.5 mi Calm Calm - N/A Fog Fog
2:15 AM 44.1 °F - 44.1 °F 100% 30.31 in 3.0 mi Calm Calm - N/A   Partly Cloudy
2:43 AM 42.1 °F - 42.1 °F 100% 30.32 in 1.8 mi Calm Calm - N/A   Clear
2:51 AM 42.8 °F - 42.8 °F 100% 30.32 in 3.0 mi Calm Calm - N/A   Clear
2:53 AM 41.0 °F - 41.0 °F 100% 30.32 in 6.0 mi Calm Calm - N/A   Clear
3:00 AM 41.0 °F - 39.9 °F 96% 30.32 in 0.8 mi Calm Calm - N/A   Clear
3:17 AM 43.0 °F - 43.0 °F 100% 30.32 in 0.8 mi Calm Calm - N/A   Mist
3:20 AM 43.0 °F - 43.0 °F 100% 30.32 in 1.2 mi Calm Calm - N/A   Partly Cloudy
3:36 AM 44.1 °F - 43.0 °F 96% 30.32 in 2.0 mi Calm Calm - N/A   Mostly Cloudy
3:44 AM 43.0 °F - 43.0 °F 100% 30.32 in 7.0 mi Calm Calm - N/A   Mostly Cloudy
3:49 AM 42.8 °F - 42.8 °F 100% 30.32 in 1.8 mi Calm Calm - N/A   Overcast
3:53 AM 43.0 °F - 43.0 °F 100% 30.32 in 0.8 mi Calm Calm - N/A   Overcast
4:40 AM 45.0 °F - 45.0 °F 100% 30.31 in 0.2 mi Calm Calm - N/A Fog Fog
4:53 AM 46.0 °F - 45.0 °F 96% 30.31 in 0.2 mi Calm Calm - N/A Fog Fog
5:22 AM 46.0 °F - 46.0 °F 100% 30.31 in 0.2 mi Calm Calm - N/A Fog Fog
5:53 AM 46.0 °F - 46.0 °F 100% 30.32 in 0.2 mi Calm Calm - N/A Fog Fog
6:18 AM 45.0 °F - 45.0 °F 100% 30.31 in 0.2 mi Calm Calm - N/A Fog Fog
6:53 AM 46.0 °F - 46.0 °F 100% 30.34 in 0.2 mi Calm Calm - N/A Fog Fog
7:53 AM 46.0 °F - 46.0 °F 100% 30.35 in 0.2 mi Calm Calm - N/A Fog Fog
8:53 AM 46.0 °F 44.8 °F 46.0 °F 100% 30.37 in 0.2 mi NW 3.5 mph - N/A Fog Fog
9:36 AM 48.0 °F - 48.0 °F 100% 30.35 in 0.8 mi Calm Calm - N/A   Mist
9:45 AM 48.0 °F - 48.0 °F 100% 30.35 in 1.2 mi Calm Calm - N/A   Overcast
9:53 AM 48.0 °F - 48.0 °F 100% 30.37 in 1.0 mi Calm Calm - N/A   Overcast
10:01 AM 48.9 °F - 48.9 °F 100% 30.35 in 0.8 mi Calm Calm - N/A   Overcast
10:53 AM 57.0 °F - 52.0 °F 83% 30.35 in 10.0 mi Calm Calm - N/A   Scattered Clouds
11:53 AM 64.0 °F - 52.0 °F 65% 30.33 in 10.0 mi Calm Calm - N/A   Clear
12:53 PM 68.0 °F - 52.0 °F 56% 30.31 in 10.0 mi SW 6.9 mph - N/A   Clear
1:53 PM 70.0 °F - 52.0 °F 53% 30.30 in 10.0 mi Variable 5.8 mph - N/A   Clear
3:53 PM 72.0 °F - 50.0 °F 46% 30.26 in 10.0 mi Calm Calm - N/A   Clear
4:53 PM 72.0 °F - 48.9 °F 44% 30.26 in 10.0 mi South 6.9 mph - N/A   Clear
5:53 PM 71.1 °F - 52.0 °F 51% 30.25 in 10.0 mi SSE 5.8 mph - N/A   Clear
6:53 PM 62.1 °F - 52.0 °F 70% 30.25 in 10.0 mi WNW 3.5 mph - N/A   Clear
7:53 PM 57.0 °F - 52.0 °F 83% 30.25 in 10.0 mi West 4.6 mph - N/A   Clear
8:53 PM 54.0 °F - 50.0 °F 86% 30.28 in 10.0 mi ESE 3.5 mph - N/A   Clear
9:53 PM 50.0 °F - 48.0 °F 93% 30.28 in 10.0 mi Calm Calm - N/A   Clear
10:53 PM 48.0 °F - 46.9 °F 96% 30.27 in 10.0 mi Calm Calm - N/A   Clear
11:53 PM 46.9 °F - 46.0 °F 97% 30.26 in 10.0 mi WSW 3.5 mph - N/A   Clear